Location: San Martino di Castrozza
(46.2667°N, 11.8000°E)
Time: 01:49:18
(UTC+00:00)

Gbstr 26 Del rocket - Pass Details

Date: 23 April 2021
Orbit: 493 x 1263 km, 51.8° (Epoch: 15 May)

Event Time Altitude Azimuth Distance (km) Brightness Sun altitude
Rises 03:19:42 0° 290° (WNW) 3,505 6.5 -9.1°
Reaches altitude 10° 03:22:33 10° 295° (WNW) 2,429 5.8 -8.7°
Maximum altitude 03:28:00 53° 12° (NNE) 862 4.1 -7.8°
Drops below altitude 10° 03:32:24 10° 91° (E) 1,972 6.8 -7.1°
Sets 03:34:32 0° 96° (E) 2,789 7.5 -6.8°
